Flugplatz Betzdorf-Kirchen

Für EDKI sind keine METAR/TAF Berichte vorhanden.
Es werden die Flugwettermeldungen vom Flugplatz Siegerland in 21 km Entfernung angezeigt.

Bericht für EDGS

vom 07.12. um 17:20 UTC

Wind 10 kt aus 150°

Sichtweite 10 km oder mehr

gering bewölkt in 1200 ft

aufgebrochene Bewölkung in 2000 ft

aufgebrochene Bewölkung in 20000 ft

Temperatur 0.0°C

Taupunkt -2.0°C

Luftfeuchtigkeit 86%

Luftdruck 1004 hPa

EDGS 071720Z AUTO 15010KT 9999 FEW012/// BKN020/// BKN200/// M00/M02 Q1004

Prognose für EDGS

vom 07.12. um 14:00 UTC

Zwischen 15:00 UTC und 18:00 UTC

Wind 10 kt aus 170°

Sichtweite 10 km oder mehr

gering bewölkt in 1000 ft


Zwischen 15:00 UTC und 18:00 UTC zeitweise

aufgebrochene Bewölkung in 800 ft


Zwischen 18:00 und 21:00 UTC übergehend zu

Wind 15 kt aus 160° in Böen 25 kt

Sichtweite 10 km oder mehr

aufgebrochene Bewölkung in 800 ft


Zwischen 23:00 UTC und 00:00 UTC zeitweise mit einer Wahrscheinlichkeit von 30%

Sichtweite 1200 m

schwacher Schnee

aufgebrochene Bewölkung in 300 ft

TAF EDGS 071400Z 0715/0724 17010KT 9999 FEW010 TEMPO 0715/0718 BKN008 BECMG 0718/0721 16015G25KT BKN008 PROB30 TEMPO 0723/0724 1200 -SN BKN003
Impressum